Baker, MT

6:43 PM MDT on August 17, 2017 (GMT -0600)
Baker Municipal

Weather History for KBHK - November, 2011

Change the Weather History Date:

Wednesday, November 9, 2011

  Actual Average Record
Temperature  
Mean Temperature 26 °F -  
Max Temperature 39 °F 17 °F 71 °F (2016)
Min Temperature 14 °F 3 °F 1 °F (2000)
Degree Days  
Heating Degree Days 38    
Moisture  
Dew Point 16 °F    
Average Humidity 68    
Maximum Humidity 88    
Minimum Humidity 36    
Precipitation  
Precipitation 0.00 in - - ()
Sea Level Pressure  
Sea Level Pressure 30.43 in    
Wind  
Wind Speed 6 mph (WNW)    
Max Wind Speed 12 mph    
Max Gust Speed -    
Visibility 10 miles    
Events      
Averages and records for this station are not official NWS values.
T = Trace of Precipitation, MM = Missing Value Source: NWS Daily Summary

Daily Weather History Graph

Daily Weather History Graph

Search for Another Location

Airport or City:

Trip Planner

Search our weather history database for the weather conditions in past years. The results will help you decide how hot, cold, wet, or windy it might be!

Date:

Astronomy

Nov. 09, 2011 Rise Set
Actual Time 6:49 AM MST 4:31 PM MST
Civil Twilight 6:17 AM MST 5:03 PM MST
Nautical Twilight 5:41 AM MST 5:39 PM MST
Astronomical Twilight 5:06 AM MST 6:14 PM MST
Moon 3:43 PM MST (11/9) 5:47 AM MST (11/9)
Length of Visible Light 10h 46m
Length of Day
9h 41m
Waxing Gibbous, 99% of the Moon is Illuminated
Nov 9
Waxing Gibbous
Nov 10
Full
Nov 18
Last Quarter
Nov 24
New
Dec 2
First Quarter

Hourly Weather History & Observations

Time (MST) Temp. Windchill Dew Point Humidity Pressure Visibility Wind Dir Wind Speed Gust Speed Precip Events Conditions
12:51 AM 24.1 °F 17.0 °F 19.0 °F 81% 30.37 in 10.0 mi WNW 5.8 mph - N/A   Mostly Cloudy
1:51 AM 23.0 °F 17.0 °F 18.0 °F 81% 30.39 in 10.0 mi West 4.6 mph - N/A   Overcast
2:51 AM 21.9 °F 11.7 °F 18.0 °F 85% 30.39 in 10.0 mi WSW 9.2 mph - N/A   Clear
3:51 AM 21.0 °F 12.4 °F 17.1 °F 85% 30.40 in 10.0 mi West 6.9 mph - N/A   Scattered Clouds
4:51 AM 21.0 °F 14.6 °F 17.1 °F 85% 30.43 in 10.0 mi West 4.6 mph - N/A   Partly Cloudy
6:51 AM 15.1 °F - 12.0 °F 88% 30.48 in 10.0 mi Calm Calm - N/A   Clear
7:51 AM 18.0 °F - 15.1 °F 88% 30.49 in 10.0 mi Calm Calm - N/A   Clear
8:51 AM 28.0 °F 21.7 °F 21.0 °F 75% 30.50 in 10.0 mi WNW 5.8 mph - N/A   Clear
9:51 AM 33.1 °F 26.9 °F 24.1 °F 70% 30.50 in 10.0 mi WNW 6.9 mph - N/A   Clear
10:51 AM 37.0 °F 30.4 °F 19.0 °F 48% 30.49 in 10.0 mi NW 9.2 mph - N/A   Mostly Cloudy
11:51 AM 37.9 °F 30.9 °F 19.0 °F 47% 30.47 in 10.0 mi WNW 10.4 mph - N/A   Partly Cloudy
12:51 PM 39.9 °F 33.9 °F 15.1 °F 36% 30.45 in 10.0 mi WNW 9.2 mph - N/A   Clear
1:51 PM 39.9 °F 33.4 °F 16.0 °F 38% 30.43 in 10.0 mi NW 10.4 mph - N/A   Clear
2:51 PM 39.9 °F 32.9 °F 15.1 °F 36% 30.42 in 10.0 mi WNW 11.5 mph - N/A   Clear
3:51 PM 37.9 °F 31.5 °F 14.0 °F 38% 30.42 in 10.0 mi WNW 9.2 mph - N/A   Clear
4:51 PM 28.9 °F 21.9 °F 14.0 °F 54% 30.43 in 10.0 mi West 6.9 mph - N/A   Clear
5:51 PM 26.1 °F 17.6 °F 15.1 °F 63% 30.44 in 10.0 mi West 8.1 mph - N/A   Clear
6:51 PM 24.1 °F - 14.0 °F 65% 30.45 in 10.0 mi Calm Calm - N/A   Clear
7:51 PM 18.0 °F - 10.9 °F 74% 30.44 in 10.0 mi North - - N/A   Clear
8:51 PM 16.0 °F - 10.9 °F 81% 30.43 in 10.0 mi Calm Calm - N/A   Clear
9:51 PM 16.0 °F - 12.0 °F 84% 30.40 in 10.0 mi Calm Calm - N/A   Clear
10:51 PM 14.0 °F - 10.9 °F 88% 30.38 in 10.0 mi Calm Calm - N/A   Clear
11:51 PM 15.1 °F - 10.9 °F 84% 30.36 in 10.0 mi Calm Calm - N/A   Clear